Total_Precipitation_Accumulation
0.06 0.10 0.28 0.39 0.41 0.34 0.25 0.18 0.16 0.16 0.16 0.15 0.15 0.15 0.15 0.16 0.15 0.15 0.16 0.17 0.19 0.23 0.30 0.32 0.36 0.48 0.49 0.35 0.23 0.13 0.10 0.08 0.07 0.06 0.06 0.08 0.10 0.13 0.12 0.11 0.12 0.16 0.21
0.06 0.11 0.27 0.38 0.45 0.41 0.35 0.26 0.18 0.16 0.17 0.18 0.19 0.19 0.18 0.17 0.17 0.19 0.21 0.22 0.25 0.29 0.32 0.34 0.38 0.45 0.43 0.31 0.18 0.08 0.04 0.02 0.01 0.01 0.01 0.02 0.06 0.10 0.07 0.07 0.09 0.17 0.20
0.08 0.14 0.25 0.37 0.46 0.46 0.42 0.35 0.26 0.21 0.20 0.23 0.25 0.24 0.24 0.22 0.21 0.22 0.24 0.27 0.30 0.31 0.31 0.37 0.36 0.36 0.32 0.25 0.15 0.07 0.04 0.02 0.01 0.01 0.02 0.03 0.09 0.12 0.10 0.10 0.14 0.18 0.19
0.10 0.17 0.25 0.35 0.46 0.49 0.48 0.42 0.37 0.33 0.30 0.30 0.32 0.32 0.32 0.28 0.26 0.26 0.27 0.27 0.27 0.26 0.26 0.27 0.23 0.19 0.14 0.11 0.10 0.07 0.04 0.02 0.01 0.02 0.03 0.05 0.10 0.18 0.18 0.16 0.18 0.19 0.19
0.17 0.22 0.32 0.40 0.46 0.51 0.50 0.49 0.46 0.42 0.41 0.40 0.39 0.39 0.41 0.39 0.33 0.30 0.28 0.26 0.22 0.20 0.19 0.19 0.15 0.10 0.06 0.05 0.06 0.06 0.04 0.02 0.01 0.02 0.03 0.05 0.10 0.21 0.20 0.17 0.17 0.18 0.20
0.23 0.27 0.38 0.46 0.49 0.49 0.50 0.48 0.48 0.46 0.46 0.46 0.41 0.40 0.45 0.49 0.45 0.35 0.29 0.23 0.18 0.16 0.14 0.13 0.10 0.08 0.06 0.04 0.04 0.04 0.03 0.02 0.01 0.02 0.04 0.06 0.09 0.19 0.18 0.15 0.15 0.17 0.18
0.29 0.33 0.43 0.57 0.62 0.61 0.60 0.55 0.50 0.49 0.49 0.50 0.45 0.42 0.46 0.50 0.51 0.41 0.30 0.22 0.16 0.14 0.13 0.11 0.08 0.07 0.06 0.05 0.05 0.04 0.02 0.01 0.01 0.03 0.05 0.07 0.10 0.19 0.17 0.15 0.15 0.16 0.17
0.39 0.43 0.54 0.69 0.75 0.74 0.71 0.65 0.61 0.58 0.55 0.54 0.53 0.53 0.50 0.51 0.52 0.43 0.30 0.23 0.20 0.17 0.14 0.12 0.09 0.07 0.06 0.05 0.04 0.03 0.02 0.01 0.01 0.01 0.02 0.04 0.08 0.14 0.15 0.13 0.14 0.15 0.14
0.56 0.60 0.69 0.76 0.82 0.88 0.80 0.70 0.66 0.64 0.63 0.59 0.59 0.60 0.54 0.51 0.48 0.39 0.27 0.23 0.22 0.21 0.18 0.15 0.13 0.11 0.09 0.07 0.05 0.03 0.01 0.01 0.01 0.01 0.02 0.03 0.06 0.11 0.11 0.12 0.14 0.16 0.15
0.77 0.73 0.75 0.79 0.82 0.92 0.92 0.78 0.66 0.60 0.60 0.62 0.63 0.60 0.49 0.44 0.45 0.40 0.26 0.22 0.22 0.21 0.19 0.17 0.14 0.13 0.11 0.08 0.05 0.02 0.01 0.01 0.00 0.01 0.02 0.02 0.05 0.09 0.10 0.12 0.14 0.16 0.16
1.07 0.96 0.87 0.88 0.85 0.89 0.96 0.85 0.77 0.67 0.62 0.60 0.61 0.55 0.49 0.48 0.46 0.40 0.26 0.16 0.19 0.19 0.17 0.18 0.17 0.15 0.12 0.09 0.05 0.02 0.01 0.01 0.01 0.01 0.02 0.02 0.05 0.08 0.09 0.10 0.12 0.12 0.12
1.23 1.16 1.02 0.94 0.94 0.98 0.97 0.97 0.94 0.81 0.70 0.63 0.57 0.58 0.55 0.51 0.49 0.43 0.34 0.20 0.18 0.18 0.17 0.19 0.19 0.19 0.15 0.10 0.06 0.03 0.02 0.01 0.01 0.01 0.01 0.02 0.06 0.08 0.09 0.09 0.08 0.08 0.09
1.41 1.38 1.24 1.09 1.06 1.04 0.99 0.95 0.97 0.86 0.78 0.72 0.66 0.63 0.62 0.59 0.52 0.53 0.45 0.33 0.28 0.20 0.19 0.19 0.20 0.17 0.15 0.12 0.10 0.06 0.03 0.03 0.02 0.02 0.02 0.02 0.05 0.08 0.10 0.10 0.08 0.08 0.09
1.68 1.67 1.49 1.32 1.20 1.15 1.08 0.94 0.88 0.84 0.79 0.72 0.65 0.68 0.68 0.63 0.53 0.49 0.46 0.35 0.30 0.24 0.21 0.21 0.19 0.16 0.14 0.14 0.14 0.09 0.06 0.04 0.02 0.02 0.02 0.01 0.02 0.07 0.09 0.11 0.11 0.10 0.11
1.95 1.93 1.84 1.58 1.35 1.22 1.18 1.08 0.92 0.79 0.71 0.71 0.68 0.65 0.61 0.56 0.49 0.46 0.45 0.41 0.35 0.27 0.22 0.22 0.22 0.19 0.16 0.14 0.14 0.11 0.08 0.06 0.04 0.02 0.02 0.01 0.01 0.03 0.07 0.10 0.12 0.14 0.16
2.10 2.21 2.21 1.91 1.58 1.33 1.22 1.14 1.02 0.84 0.73 0.73 0.73 0.67 0.63 0.55 0.49 0.47 0.41 0.39 0.36 0.33 0.29 0.25 0.23 0.25 0.23 0.19 0.16 0.13 0.13 0.11 0.08 0.06 0.03 0.02 0.01 0.02 0.04 0.08 0.14 0.19 0.23
2.17 2.35 2.42 2.27 1.96 1.54 1.31 1.19 1.09 0.98 0.85 0.76 0.72 0.70 0.69 0.65 0.59 0.56 0.49 0.43 0.39 0.38 0.37 0.33 0.31 0.31 0.29 0.24 0.19 0.16 0.14 0.12 0.09 0.08 0.06 0.04 0.03 0.02 0.02 0.06 0.13 0.21 0.24
2.22 2.34 2.43 2.41 2.25 1.87 1.47 1.29 1.17 1.09 1.01 0.88 0.82 0.81 0.77 0.73 0.68 0.68 0.60 0.49 0.44 0.46 0.44 0.39 0.34 0.33 0.29 0.27 0.23 0.19 0.16 0.12 0.10 0.08 0.07 0.05 0.04 0.04 0.03 0.04 0.08 0.14 0.19
2.09 2.28 2.50 2.46 2.34 2.15 1.84 1.58 1.43 1.27 1.17 1.05 0.91 0.85 0.89 0.88 0.84 0.80 0.67 0.56 0.51 0.50 0.48 0.47 0.41 0.38 0.32 0.27 0.25 0.24 0.20 0.15 0.12 0.10 0.07 0.05 0.04 0.04 0.04 0.04 0.05 0.06 0.10
1.93 2.16 2.34 2.60 2.54 2.51 2.41 2.09 1.76 1.56 1.35 1.23 1.06 0.93 0.92 0.94 0.94 0.93 0.84 0.72 0.67 0.60 0.53 0.51 0.48 0.47 0.44 0.39 0.34 0.29 0.26 0.21 0.17 0.13 0.10 0.08 0.06 0.05 0.05 0.05 0.05 0.05 0.05
1.77 1.99 2.11 2.32 2.52 2.57 2.47 2.17 1.81 1.58 1.51 1.46 1.32 1.18 1.10 1.04 1.01 0.99 0.97 0.90 0.80 0.70 0.62 0.58 0.57 0.54 0.52 0.53 0.53 0.43 0.31 0.25 0.20 0.16 0.13 0.11 0.08 0.07 0.07 0.07 0.07 0.07 0.06
1.55 1.70 1.93 2.00 2.25 2.32 2.26 2.21 2.05 1.94 1.83 1.72 1.62 1.42 1.29 1.24 1.14 1.05 0.99 0.98 0.91 0.82 0.78 0.78 0.75 0.70 0.64 0.63 0.66 0.63 0.48 0.35 0.24 0.18 0.16 0.15 0.13 0.13 0.11 0.10 0.09 0.10 0.10
1.28 1.55 1.67 1.74 1.97 2.19 2.27 2.40 2.49 2.43 2.13 1.86 1.69 1.61 1.49 1.42 1.33 1.20 1.09 1.07 1.05 0.93 0.85 0.88 0.91 0.90 0.90 0.88 0.84 0.92 0.81 0.55 0.37 0.25 0.20 0.18 0.17 0.16 0.15 0.14 0.13 0.13 0.13
0.97 1.28 1.61 1.75 1.88 2.08 2.35 2.36 2.30 2.18 1.97 1.71 1.69 1.74 1.71 1.60 1.50 1.36 1.26 1.20 1.17 1.12 1.03 1.04 1.06 1.10 1.14 1.12 1.06 1.00 0.94 0.79 0.72 0.51 0.29 0.23 0.21 0.19 0.20 0.19 0.18 0.17 0.17
0.80 1.01 1.29 1.58 1.82 2.02 2.15 2.21 2.26 2.11 1.94 1.89 1.82 1.78 1.68 1.58 1.53 1.46 1.40 1.36 1.32 1.30 1.28 1.30 1.28 1.25 1.23 1.22 1.18 1.15 1.14 1.03 0.91 0.84 0.60 0.40 0.35 0.31 0.28 0.26 0.24 0.24 0.25
0.71 0.84 1.02 1.28 1.48 1.69 1.89 1.99 2.05 2.05 2.05 2.01 1.83 1.74 1.73 1.70 1.64 1.53 1.52 1.51 1.50 1.48 1.45 1.43 1.43 1.45 1.43 1.37 1.34 1.25 1.20 1.16 1.03 1.04 0.94 0.69 0.61 0.51 0.44 0.40 0.37 0.36 0.35